This is the latest recevied weather packets stored in our database for station/object W4OTS. If no packets are shown the sender has not sent any weather packets the latest 10 day(s).
| Time | Temp. | Humidity | Pressure | Rain* | Wind** | Luminosity | Snow |
|---|---|---|---|---|---|---|---|
| 1777662397 | 19.44° C | 54% | 1015.2 hPa | 0 mm | - | 186 W/m² | - |
| 1777662092 | 19.44° C | 51% | 1015.2 hPa | 0 mm | - | 165 W/m² | - |
| 1777661789 | 19.44° C | 56% | 1015.7 hPa | 0 mm | - | 173 W/m² | - |
| 1777661484 | 18.89° C | 53% | 1015.6 hPa | 0 mm | - | 226 W/m² | - |
| 1777661181 | 19.44° C | 50% | 1015.7 hPa | 0 mm | - | 393 W/m² | - |
| 1777660876 | 18.89° C | 52% | 1015.7 hPa | 0 mm | - | 580 W/m² | - |
| 1777660573 | 19.44° C | 50% | 1015.6 hPa | 0 mm | - | 590 W/m² | - |
| 1777660269 | 20° C | 52% | 1015.8 hPa | 0 mm | - | 528 W/m² | - |
| 1777659966 | 18.89° C | 48% | 1015.9 hPa | 0 mm | - | 657 W/m² | - |
| 1777659663 | 18.89° C | 50% | 1015.7 hPa | 0 mm | - | 691 W/m² | - |
| 1777659360 | 18.89° C | 51% | 1016.1 hPa | 0 mm | - | 359 W/m² | - |
| 1777659057 | 19.44° C | 48% | 1016.2 hPa | 0 mm | - | 368 W/m² | - |
| 1777658755 | 19.44° C | 55% | 1016 hPa | 0 mm | - | 521 W/m² | - |
| 1777658450 | 18.33° C | 50% | 1016.2 hPa | 0 mm | - | 658 W/m² | - |
| 1777658147 | 18.89° C | 49% | 1016.1 hPa | 0 mm | - | 567 W/m² | - |
| 1777657844 | 19.44° C | 49% | 1016.2 hPa | 0 mm | - | 590 W/m² | - |
| 1777657541 | 18.89° C | 50% | 1016.2 hPa | 0 mm | - | 648 W/m² | - |
| 1777657239 | 18.33° C | 51% | 1016.4 hPa | 0 mm | - | 567 W/m² | - |
| 1777656936 | 18.33° C | 49% | 1016.3 hPa | 0 mm | - | 623 W/m² | - |
| 1777656633 | 18.33° C | 51% | 1016.6 hPa | 0 mm | - | 558 W/m² | - |
| 1777656328 | 18.89° C | 48% | 1016.4 hPa | 0 mm | - | 735 W/m² | - |
| 1777656024 | 19.44° C | 47% | 1016.8 hPa | 0 mm | - | 736 W/m² | - |
| 1777655720 | 18.89° C | 52% | 1016.6 hPa | 0 mm | - | 737 W/m² | - |
| 1777655417 | 18.89° C | 48% | 1016.8 hPa | 0 mm | - | 716 W/m² | - |
| 1777655114 | 19.44° C | 51% | 1016.9 hPa | 0 mm | - | 697 W/m² | - |
* Rain latest hour (hover to see other rain measurements)
** Current wind speed in m/s (hover to see current wind gust speed)